West Ford 3 Package part

Debris
NORAD ID: 702 Int'l Des: 1963-014 Owner: AFSSD Country: US
MEOPOLAR

关于 West Ford 3 Package part

正在加载描述...

实时位置

正在加载3D地球...

即将过境

高度历史

Altitude vs Time

uPlot chart will show altitude changes over time

两行轨道根数

1 702U 63014H 26062.32092630 -.00000031 00000-0 -15900-1 0 9996
2 702 87.3600 199.8256 0104769 155.5077 205.0803 8.65655556985115
Epoch: Mar 3, 2026 • Age: 24 hours

当前状态

高度 3754.5 km
速度 6.24 km/s
星下点 -23.83°S, 34.49°E
类型 debris

大型星座

Loading constellations...